SL-16 DEB, 22367

Orbit data source: Space-Track

SL-16 DEB, 22367 is space debris in LEO originally from a launch on Fri, 25 Dec 1992 UTC launched from the Tyuratam Missile And Space Complex (TTMTR). Debris objects in space refer to the collection of defunct objects orbiting the Earth. Examples of debris include non-operational satellites, rocket bodies, and fragments generated from explosions, collisions, or faulty payload assembly.

Loading next visibility...
Identifier
22367, 1992-093BG
Orbit
LEO
Country
Flag of CISCIS
Related business
Manufacturer
Unknown
Mission
Spacecraft
Bus & Motor
Unknown
Mass
Unknown
Launch date (UTC)
1992-12-25 (33 years ago)
Launch vehicle
Unknown
Launch site
Tyuratam Missile And Space Complex (TTMTR)
Object type
Payload
Rocket body
Debris
Shape & HBR
Unknown shape, 0.3 m
Radar Cross Section
Medium (>0.1 m² and <1 m²)

Expand to show TLE details & history
Last TLE update: 11 hours ago

TLE from 11 hours ago
0 SL-16 DEB
1 22367U 92093BG  26133.33553285  .00000049  00000-0  73841-4 0  9992
2 22367  70.9016 329.5299 0184912  81.3706  92.5439 13.83418212683253
Epoch: 2026-05-13T08:03Z
TLE epoch observation values (Epoch: 2026-05-13T08:03:10.038Z)
Latitude
3.66993°
Longitude
156.37511°
Altitude
962.261 km
Speed
7.367 km/s
True Right ascension
09h 53m 03s
True Declination
3° 38' 55"
Sunlit
Object was in daylight at epoch
Visualization orbit readout
Latitude
Unknown
Longitude
Unknown
Altitude
Unknown
Speed
Unknown
Apparent Right ascension
Unknown
Apparent Declination
Unknown
Sunlit
N/A
Visualization observer readout
Local Sidereal Time
03:55:48
Azimuth
Unknown
Elevation
Unknown
Doppler factor
Unknown
Orbital elements
Apogee altitude
1,085.254 km
Perigee altitude
814.251 km
Semi-major axis
7,327.889 km
Eccentricity
0.01849
Inclination
70.9016°
RAAN
329.5299°
Arg. of periapsis
81.3706°
True anomaly
94.6581°
Mean anomaly
92.5439°
Eccentric anomaly
93.60128°
Mean motion
3.45999 °/min
Orbital period
104.05 mins
BSTAR
0.000073841
Loading maneuver chart data...
Computing Atmospheric mass density...
Loading historical data...
Loading historical data...
Loading historical data...
Loading historical data...
Loading historical data...
Loading historical data...
Loading historical data...

Documentation

Showing up to 5 results
|